[Iaude] MPEC G47: 2024 FY4 [a=2.72,e=0.55,i=4.9,H=23.4]
    mpec at cfa.harvard.edu 
    mpec at cfa.harvard.edu
       
    Thu Apr  4 13:58:45 EDT 2024
    
    
  
M.P.E.C. 2024-G47                                 Issued 2024 April 4, 17:57 UT
     The Minor Planet Electronic Circulars contain information on unusual
         minor planets, routine data on comets and natural satellites,
         and occasional editorial announcements.  They are published
    on behalf of Division F of the International Astronomical Union by the
          Minor Planet Center, Smithsonian Astrophysical Observatory,
                          Cambridge, MA 02138, U.S.A.
			  
             Prepared using the Tamkin Foundation Computer Network
                              MPC at CFA.HARVARD.EDU
            URL https://www.minorplanetcenter.net/    ISSN 1523-6714
                                    2024 FY4                                    
Observations:
     K24F04Y* C2024 03 31.29777411 16 52.002+19 11 46.51         22.16wXEG047F52
     K24F04Y  C2024 03 31.31078811 16 53.166+19 11 21.52         22.00wXEG047F52
     K24F04Y  C2024 03 31.33688211 16 55.462+19 10 30.82         22.04wXEG047F52
     K24F04Y  C2024 04 01.34173311 18 37.553+18 37 34.38         21.90GVEG047F51
     K24F04Y  C2024 04 01.34254511 18 37.627+18 37 33.01         21.99GVEG047F51
     K24F04Y  C2024 04 01.34336111 18 37.711+18 37 31.24         21.91GVEG047F51
     K24F04Y  C2024 04 01.34418211 18 37.786+18 37 29.75         22.18GVEG047F51
     K24F04Y 7C2024 04 03.99694911 23 11.675+17 08 23.67         22.2 GVEG047Z84
     K24F04Y 7C2024 04 04.01871911 23 13.754+17 07 39.14         21.7 GVEG047Z84
     K24F04Y 7C2024 04 04.03513511 23 15.296+17 07 05.38         21.8 GVEG047Z84
     K24F04Y KC2024 04 04.23695 11 23 37.58 +17 00 16.7                VEG047691
     K24F04Y KC2024 04 04.25402 11 23 39.22 +16 59 42.1          22.5 RVEG047691
Observer details:
691 Steward Observatory, Kitt Peak-Spacewatch.  Observer T. H. Bressi.  0.9-m
    f/3 reflector + CCD.
F51 Pan-STARRS 1, Haleakala.  Observers J. Herman, T. Lowe, P. Minguez, A.
    Schultz, I. Smith.  Measurers K. Chambers, T. de Boer, J. Fairlamb, H.
    Gao, M. Huber, C.-C. Lin, E. Magnier, Y. Ramanjooloo, R. Wainscoat, R.
    Weryk.  1.8-m Ritchey-Chretien + CCD.
F52 Pan-STARRS 2, Haleakala.  Observers J. Herman, T. Lowe, P. Minguez, A.
    Schultz, I. Smith.  Measurers K. Chambers, T. de Boer, J. Fairlamb, H.
    Gao, M. Huber, C.-C. Lin, E. Magnier, Y. Ramanjooloo, R. Wainscoat, R.
    Weryk.  1.8-m Ritchey-Chretien + CCD.
Z84 Calar Alto-Schmidt.  Observers F. Ocana, R. Kresken, M. Micheli, L.
    Conversi.  Measurers F. Ocana, M. Micheli.  0.8-m f/3 Schmidt + CCD.
Orbital elements:
2024 FY4                                                 Earth MOID = 0.2465 AU
Epoch 2024 Mar. 31.0 TT = JDT 2460400.5                 Alexandersen            
M   1.68650              (2000.0)            P               Q                  
n   0.22010646     Peri.  136.99653     -0.99759353     -0.04072862             
a   2.7167365      Node    40.77052     +0.01068395     -0.88991141             
e   0.5456094      Incl.    4.92907     +0.06850553     -0.45431141             
P   4.48           H   23.45          G   0.15           U   9                  
Residuals in seconds of arc
240331 F52  0.1+  0.1+    240401 F51  0.1-  0.1+    240404 Z84  0.2+  0.1+
240331 F52  0.1+  0.2+    240401 F51  0.0   0.1-    240404 Z84  0.1-  0.2+
240331 F52  0.0   0.1-    240401 F51  0.1+  0.0     240404 691  0.3-  0.1-
240401 F51  0.1-  0.1-    240403 Z84  0.1-  0.2-    240404 691  0.4+  0.2+
Ephemeris:
2024 FY4                 a,e,i = 2.72, 0.55, 5                   q = 1.2345
Date    TT    R. A. (2000) Decl.     Delta      r    Elong.  Phase     V
2024 03 05    10 41 03.8 +29 16 40   0.2788  1.2521   156.2    18.6    22.1
...
2024 03 20    10 59 12.9 +24 41 07   0.2646  1.2350   151.6    22.5    22.1
...
2024 03 28    11 11 23.9 +20 56 21   0.2666  1.2356   149.7    24.1    22.2
...
2024 04 03    11 21 28.0 +17 42 21   0.2728  1.2405   148.4    25.0    22.3
2024 04 04    11 23 12.5 +17 08 31   0.2742  1.2416   148.2    25.1    22.3
2024 04 05    11 24 57.9 +16 34 21   0.2758  1.2429   148.0    25.3    22.3
...
2024 04 11    11 35 49.1 +13 04 37   0.2878  1.2527   146.7    26.0    22.4
...
2024 04 19    11 50 56.4 +08 22 33   0.3108  1.2712   144.9    27.0    22.6
...
2024 05 04    12 20 06.7 +00 15 48   0.3762  1.3213   140.8    28.9    23.2
M. P. C. Staff               (C) Copyright 2024 MPC           M.P.E.C. 2024-G47
    
    
More information about the Iaude
mailing list